82P/Gehrels 3 (2026)

Japanese version
Home page
Updated on March 25, 2025

---------------------------------------------------------------------

* Profile

* Orbital Elements

Epoch 2026 Nov. 16.0 TT = JDT 2461360.5                                         
T 2026 Nov. 14.63014 TT                                 Rudenko                 
q   3.6241903            (2000.0)            P               Q                  
n   0.11701453     Peri.  226.26820     -0.26746001     -0.96342041             
a   4.1397698      Node   239.25213     +0.88961930     -0.24014972             
e   0.1245430      Incl.    1.12802     +0.37019271     -0.11895050             
P   8.42                                                                        
From 113 observations 1975 Oct. 30-2020 May 20, mean residual 0".6.             

* Magnitudes Graph

        m1 = 6.5 + 5 log d + 20.0 log r

---------------------------------------------------------------------

The orbital elements are published on M.P.E.C. 2020-L06.
The magnitudes graphs are made with Comet for Windows.

---------------------------------------------------------------------

Copyright(C) Seiichi Yoshida (comet@aerith.net). All rights reserved.